Location: Holyhead Bay
(53.3667°N, 4.6667°W)
Time: 05:27:06
(UTC+00:00)

ADEOS Rocket - Pass Details

Date: 19 April 2021
Orbit: 859 x 1306 km, 98.7° (Epoch: 12 May)

Event Time Altitude Azimuth Distance (km) Brightness Sun altitude
Exits shadow 04:01:18 - 202° (SSW) 3,180 5.2 -9.9°
Reaches altitude 10° 04:02:21 10° 206° (SSW) 2,839 4.9 -9.8°
Maximum altitude 04:08:08 34° 270° (W) 1,768 3.9 -9.1°
Drops below altitude 10° 04:14:30 10° 333° (NNW) 3,137 5.7 -8.3°
Sets 04:17:35 0° 342° (NNW) 4,165 6.5 -7.9°
